Theta_e
298 299 299 299 300 301 301 301 302 302 302 303 303 303 304 304 306 307 307 310 308 308 312 309 308 313 311 306 305 306 305 306 306 306 306 307 307 309 310 308 308 309 306 306 306 306 308 306 304 305 305 306 307 305 306 307 307 310 310 310 310 311 310 310 310 310 309 306 304 303 303 304 306 306 305 306 309 311 311 311 311 310 309 309 310 310 310
298 299 299 299 299 300 301 301 301 301 302 302 302 303 303 303 305 306 307 308 308 310 311 310 312 314 311 310 309 306 304 305 307 307 306 306 307 310 310 306 305 305 305 306 306 304 307 306 303 304 305 306 306 305 307 309 311 312 312 312 310 308 309 310 309 309 308 307 307 306 306 306 307 307 305 304 307 310 310 309 309 309 309 310 311 311 311
298 298 298 299 299 300 300 301 301 301 302 302 302 302 303 304 306 307 305 306 308 309 308 308 312 313 313 314 312 308 307 306 306 306 305 303 304 307 308 305 304 305 305 306 306 304 306 306 305 305 306 306 305 304 306 308 311 313 312 311 309 307 310 310 308 308 308 307 308 308 308 307 307 307 305 304 307 309 309 309 308 308 308 308 309 310 311
298 298 298 298 299 299 300 300 301 301 301 301 302 302 303 305 307 307 306 306 306 306 304 305 309 311 312 312 308 308 310 307 304 305 304 303 303 304 305 303 305 306 306 309 310 306 305 306 307 308 307 307 305 304 305 306 308 312 310 308 309 309 309 310 309 309 308 307 307 306 306 307 307 307 306 305 307 308 308 308 308 308 307 307 309 309 310
297 297 297 298 298 299 299 300 300 301 301 301 302 302 303 305 307 306 306 306 305 305 305 304 306 307 308 309 307 307 309 307 306 305 303 303 304 303 303 303 305 307 308 311 311 307 305 306 308 308 306 305 304 303 304 305 305 308 307 306 309 309 308 309 310 309 307 306 306 304 304 306 306 306 307 307 307 308 308 308 308 308 307 307 309 311 310
297 297 297 297 298 298 299 299 300 300 301 301 301 302 303 305 305 303 303 304 304 306 306 304 305 306 306 307 306 306 308 308 307 305 303 303 304 304 305 303 303 305 306 308 309 307 307 307 307 307 304 305 306 303 304 304 302 304 305 306 308 308 307 307 308 307 306 305 304 303 303 304 305 305 307 307 307 308 307 308 309 308 307 307 310 313 312
296 296 296 296 297 297 298 299 299 299 300 300 301 302 302 303 304 303 303 304 303 304 304 302 304 306 307 307 305 305 306 306 304 302 303 307 305 304 307 305 302 303 305 308 309 307 306 305 306 306 305 305 306 305 304 303 302 302 304 306 307 306 306 307 307 306 307 305 304 304 304 305 305 305 306 306 306 307 307 308 308 308 308 308 308 312 313
296 296 296 296 296 296 297 297 299 299 299 300 300 301 301 301 302 302 303 303 303 302 301 302 305 306 306 306 304 303 303 304 302 300 302 307 305 303 306 305 301 302 304 306 306 303 303 304 305 306 305 304 304 305 304 303 303 302 304 305 305 304 306 307 306 305 305 304 304 304 304 305 305 306 306 305 305 305 305 306 306 305 306 306 305 309 310
296 295 296 295 295 296 296 297 298 298 299 299 299 298 299 300 300 301 303 303 302 302 300 300 305 305 304 304 304 303 302 301 301 300 300 302 303 302 304 304 302 302 304 305 303 300 300 302 302 303 304 303 303 304 303 303 303 303 303 306 306 304 304 306 304 303 303 303 303 303 304 304 304 305 306 305 305 305 305 304 305 305 306 306 305 306 306
295 295 295 295 294 295 295 295 296 297 298 298 298 297 297 298 299 300 303 302 301 301 300 300 303 304 301 302 303 302 300 299 300 302 300 299 299 300 301 302 303 303 304 303 301 299 299 300 300 301 301 301 301 302 301 301 302 303 303 305 305 304 303 303 303 302 302 303 304 304 304 303 303 304 305 306 307 307 306 305 305 306 306 306 305 305 306
294 294 294 294 294 295 295 295 294 295 296 297 297 296 296 297 298 299 301 301 299 299 300 301 302 302 299 300 300 300 300 300 300 302 302 300 299 299 299 301 303 303 301 300 299 299 300 300 300 300 300 300 301 300 300 300 300 301 302 303 303 303 303 302 302 301 301 302 304 303 303 302 302 302 303 304 305 306 306 306 306 306 305 304 304 304 304
295 294 293 293 293 295 296 295 294 294 294 295 296 296 296 296 297 298 299 301 300 299 300 300 299 299 298 298 300 300 300 299 299 300 301 300 299 298 298 299 301 302 299 299 300 300 300 300 300 300 299 299 300 299 299 300 300 300 301 301 302 303 302 302 301 301 300 300 302 303 303 303 302 301 302 302 302 303 304 305 304 304 304 303 303 304 304
295 295 295 294 293 294 295 295 294 293 293 294 295 295 295 295 296 297 298 300 301 299 300 299 297 297 298 298 299 300 299 298 298 299 300 300 298 298 297 297 298 298 298 299 300 300 301 301 300 300 299 299 300 300 299 300 300 300 299 300 301 302 302 301 301 301 300 300 301 302 303 302 302 302 303 303 303 303 303 303 303 303 302 303 304 305 305
294 294 295 295 294 294 294 294 295 294 292 293 294 295 295 295 295 296 297 299 300 297 296 298 298 297 298 298 298 299 299 298 298 299 299 298 298 297 297 296 296 297 298 299 300 300 301 300 300 300 300 300 300 300 299 299 300 300 299 299 300 301 301 301 301 301 300 300 301 301 302 302 303 304 303 302 303 303 303 302 302 301 301 302 304 304 304
293 293 294 295 295 295 294 294 294 293 292 292 293 294 294 295 295 295 296 298 299 297 296 297 297 297 298 297 297 299 299 298 298 298 298 297 296 296 296 296 296 297 299 299 299 300 300 300 300 300 300 300 300 299 299 299 299 299 299 299 299 300 301 301 301 300 299 300 301 302 302 302 302 303 302 301 302 302 302 302 302 301 300 301 302 302 302
293 292 293 294 295 295 295 295 294 293 292 292 292 293 294 294 294 294 295 295 297 297 296 296 296 296 297 297 296 298 298 297 297 298 298 297 296 296 296 296 297 298 298 299 299 300 300 299 299 299 299 299 299 299 300 300 299 298 298 298 299 299 299 300 301 300 300 301 302 301 302 302 301 301 302 301 301 300 301 303 303 301 300 300 301 301 302
293 293 293 294 294 295 295 294 294 294 293 291 292 293 293 293 293 293 294 294 295 296 297 296 296 296 296 296 296 296 296 296 296 296 297 297 296 296 296 296 297 297 298 299 300 299 299 299 298 299 299 299 299 299 299 299 299 299 299 300 300 300 298 299 300 300 300 301 301 301 300 301 301 301 301 301 300 300 302 304 303 300 300 300 300 301 302
293 293 293 294 294 294 295 294 294 294 293 291 291 292 292 291 291 292 293 293 294 296 296 296 295 295 295 295 296 296 296 296 296 296 296 295 296 297 296 296 297 297 297 299 299 299 299 298 298 299 299 298 298 299 299 298 299 299 299 300 300 299 298 297 298 299 300 300 301 301 300 301 302 301 300 300 300 301 304 303 300 298 299 300 300 301 302
294 293 292 293 293 293 294 294 293 294 293 291 290 291 291 291 290 291 292 292 293 294 295 295 294 294 295 295 296 295 296 296 295 296 296 296 296 297 296 295 296 297 297 297 297 297 297 298 298 298 299 299 299 298 298 298 298 299 299 299 299 297 297 297 297 298 298 298 299 299 299 300 301 300 299 299 300 301 301 300 298 298 299 299 300 301 301
294 293 292 292 292 293 293 293 292 292 293 291 289 290 290 290 290 290 291 291 292 294 295 295 294 294 294 295 296 296 296 295 295 296 295 296 297 296 296 296 296 296 297 296 296 296 296 297 298 297 298 299 298 297 297 297 297 298 298 298 298 298 297 297 297 297 296 297 298 299 298 299 300 300 298 299 299 299 298 298 297 298 298 298 300 300 299
295 293 292 292 292 292 293 293 292 291 291 290 290 291 291 292 292 292 292 292 292 293 295 295 294 294 295 295 295 295 296 296 296 296 296 296 297 296 296 296 296 296 297 296 296 296 296 296 297 296 297 298 297 296 296 296 296 296 297 297 297 297 297 296 296 296 297 297 298 299 298 298 299 298 298 298 298 297 297 297 298 297 297 298 299 299 299
295 293 292 291 291 291 292 293 292 291 290 291 292 293 293 293 293 293 293 293 292 293 294 294 294 294 294 295 295 295 295 295 296 296 296 296 297 296 296 296 296 296 297 296 295 295 296 296 296 295 295 296 296 295 295 295 295 295 296 296 296 297 296 296 296 297 297 297 298 298 298 298 298 297 297 298 298 297 297 297 297 297 298 298 299 299 299
296 294 292 291 291 291 291 292 293 291 291 292 293 293 293 293 293 293 293 293 293 294 294 294 294 295 295 294 295 294 295 295 295 296 296 296 296 296 296 296 297 296 297 296 295 295 296 296 295 295 295 296 295 295 295 295 295 295 295 295 296 296 296 296 296 296 297 297 297 297 297 297 297 296 297 297 297 297 297 296 296 297 298 298 298 298 298
296 295 292 291 291 291 291 293 293 292 293 294 294 294 293 292 292 292 293 293 293 294 295 294 293 294 294 294 294 294 295 295 295 295 295 296 296 296 296 296 296 296 297 297 296 296 296 296 295 295 295 295 295 295 295 295 295 295 295 295 296 296 295 295 296 296 296 296 297 296 297 297 297 296 296 296 296 296 296 296 296 296 296 296 296 296 297
296 295 293 291 291 291 291 293 293 293 293 294 294 294 293 292 292 292 293 293 292 293 294 294 293 293 294 294 294 294 295 295 295 295 295 295 296 296 296 296 296 296 296 296 296 296 296 296 295 296 296 295 295 295 295 295 295 295 295 295 295 295 295 295 295 296 295 296 296 297 297 297 296 296 296 296 296 296 296 296 296 296 296 295 295 296 296
296 295 294 292 291 290 291 293 293 293 294 294 294 294 293 293 293 292 292 293 292 292 293 293 293 293 294 294 294 294 294 295 295 295 295 295 296 296 296 296 296 296 296 296 296 296 296 296 295 296 296 296 295 295 295 295 295 295 295 295 296 296 295 295 295 295 295 295 296 296 296 296 296 296 295 295 295 295 295 296 295 295 295 295 295 296 296
296 295 294 293 291 290 291 293 293 293 294 294 294 294 294 293 293 292 292 292 292 292 292 292 293 293 294 294 294 294 294 294 295 295 296 296 296 296 296 296 296 296 295 295 296 296 296 296 295 296 296 295 295 296 296 295 295 295 295 296 296 295 295 295 295 294 294 295 295 295 295 295 296 296 295 295 295 295 295 295 295 295 295 296 296 296 296
296 296 295 294 292 290 291 292 293 294 293 293 294 294 294 293 293 293 293 292 292 292 292 292 293 293 294 295 294 294 294 294 294 295 295 295 295 295 295 295 296 296 295 296 296 296 296 296 295 295 295 295 295 295 295 295 295 295 295 296 296 295 295 295 295 294 295 295 295 295 295 295 295 295 295 295 295 295 295 295 295 295 295 296 296 296 297
296 296 296 295 294 291 290 292 293 294 294 293 294 294 295 294 293 293 293 293 292 292 292 292 293 293 294 294 294 294 294 293 293 294 294 294 294 294 294 294 295 295 295 296 296 296 296 296 296 295 295 295 295 295 294 294 294 294 295 295 295 295 295 295 295 294 295 295 295 295 295 295 295 295 295 295 295 295 295 295 295 295 296 296 296 297 297
296 296 296 295 294 293 291 291 293 294 294 293 294 294 295 294 293 293 293 293 293 292 292 292 293 293 293 294 294 294 294 293 293 293 293 293 293 293 293 293 294 294 295 296 296 295 295 296 296 296 296 296 294 294 294 294 293 294 294 294 294 294 294 294 294 294 294 294 294 294 295 295 295 295 295 295 296 295 295 295 295 295 295 296 296 296 296
296 296 296 295 294 293 291 291 293 294 294 294 294 294 294 294 294 293 293 293 293 292 292 292 294 293 293 294 293 293 293 293 293 292 293 293 292 293 293 293 293 294 294 295 295 295 295 295 295 295 296 296 294 293 294 293 293 293 294 294 293 294 294 294 294 294 294 294 295 295 295 295 296 295 295 296 296 296 296 295 295 295 295 295 295 296 296
295 295 296 294 293 292 292 292 293 294 294 294 295 294 294 294 293 293 293 293 293 292 292 293 294 292 292 293 293 293 293 293 293 292 292 292 292 292 293 292 293 293 293 294 295 295 294 294 295 294 295 296 295 293 293 293 293 294 294 294 294 294 294 294 294 294 294 295 295 295 296 296 296 296 296 295 295 296 296 295 295 295 295 295 295 295 295
295 295 295 294 293 293 293 293 293 294 294 294 295 294 293 293 293 293 294 293 292 292 293 293 291 290 291 293 293 293 293 294 293 293 293 293 292 292 293 292 292 293 293 294 294 294 294 294 294 293 294 295 294 292 293 293 294 294 294 294 294 294 294 294 294 295 295 296 296 296 296 295 295 295 295 294 295 295 295 295 295 295 295 296 296 295 296
295 295 294 293 293 293 294 294 294 294 294 294 294 294 293 293 293 294 294 293 293 293 293 292 291 292 293 293 293 293 293 294 294 293 293 293 292 292 293 293 292 293 293 293 293 293 293 294 293 293 293 293 292 292 293 294 294 294 294 294 294 294 294 294 295 295 295 295 295 295 295 295 294 294 294 294 294 294 295 295 295 295 296 296 296 296 296
295 295 294 293 292 293 294 294 294 294 294 294 294 294 293 294 294 294 294 294 293 293 292 292 292 293 294 294 294 294 293 294 294 293 293 293 292 292 293 293 292 292 292 292 292 292 292 293 293 292 291 291 291 293 294 294 294 294 294 294 294 294 294 295 295 295 295 295 295 294 294 294 294 294 295 295 295 295 295 295 296 296 296 296 296 296 296
295 294 294 293 293 293 294 294 294 294 293 293 293 293 293 293 294 294 294 294 294 293 292 292 292 292 292 293 293 293 293 294 293 293 292 293 292 292 293 292 292 292 292 291 291 290 291 292 292 291 290 290 292 293 293 293 294 294 294 294 295 294 295 295 295 295 295 294 294 294 294 294 294 295 295 295 295 295 296 296 296 296 296 296 296 297 296
295 294 294 293 293 293 294 294 294 293 293 292 292 292 292 293 293 294 294 294 294 294 293 292 292 292 292 292 292 293 294 293 292 292 292 292 292 292 292 291 291 292 291 290 290 291 291 292 293 292 292 292 293 293 293 294 294 295 295 295 294 294 294 294 294 294 294 294 294 294 294 294 294 294 295 295 295 295 295 296 296 296 296 296 296 295 295
295 294 294 293 293 293 293 293 293 292 292 293 293 293 293 293 294 294 294 294 294 294 294 293 293 292 292 292 293 293 294 293 292 291 292 292 291 291 291 291 291 291 290 289 290 291 292 291 290 291 293 293 293 293 293 294 295 295 294 294 294 293 293 293 293 293 294 294 294 294 294 293 294 294 294 294 294 294 294 295 295 295 295 295 294 294 294
295 295 294 294 293 293 292 293 293 292 292 293 293 293 293 294 294 294 293 293 294 294 293 293 293 293 292 293 294 294 294 293 292 291 291 291 291 291 290 290 290 290 290 289 290 291 292 291 289 289 292 293 293 293 294 294 295 295 294 294 294 294 294 294 294 294 294 294 294 293 293 293 293 294 294 293 293 293 293 293 293 294 294 293 293 294 293
295 295 294 293 293 293 292 292 293 292 293 293 294 294 294 294 294 293 293 294 295 294 293 294 294 293 293 293 294 294 293 293 292 291 291 291 291 291 290 290 290 290 290 290 290 291 292 291 289 289 292 293 293 293 294 295 295 295 294 294 294 294 294 294 294 294 293 293 293 293 293 293 293 293 293 292 292 292 292 292 293 293 293 293 293 293 293
295 294 294 293 293 293 293 293 293 293 293 293 293 293 293 293 293 293 293 294 294 294 294 294 294 294 293 293 293 293 293 292 292 291 291 291 291 291 291 290 289 289 291 291 290 289 291 292 291 291 292 293 293 293 293 294 294 295 295 294 294 294 294 294 294 293 293 293 293 293 293 293 293 293 293 293 293 293 293 293 293 293 293 293 293 292 292
294 294 294 293 293 293 293 293 293 293 293 293 293 292 291 291 292 292 292 292 292 292 293 294 294 294 293 292 293 293 293 292 292 292 291 291 291 291 290 289 288 290 291 290 289 289 291 292 292 292 292 293 294 294 293 293 294 294 294 294 294 294 294 294 293 293 293 293 293 293 293 294 294 293 293 293 293 293 293 293 293 292 292 292 292 292 292
294 294 293 293 293 292 293 293 293 292 293 293 293 291 290 291 291 291 291 292 292 293 293 293 293 293 292 292 292 292 292 292 292 292 291 291 291 290 289 289 289 290 289 288 289 291 291 291 291 292 293 293 294 294 294 294 293 293 293 294 294 294 294 294 293 293 293 293 294 294 294 294 294 293 293 292 292 292 292 292 292 292 292 292 292 292 292
294 294 293 293 292 291 292 292 292 292 292 292 291 291 291 292 291 290 291 292 292 293 293 293 292 292 292 292 292 292 292 292 292 291 291 291 290 290 290 290 289 289 288 288 289 289 289 289 291 292 292 293 293 294 294 294 294 293 293 294 294 294 294 294 293 293 293 294 294 294 294 293 293 292 292 292 292 292 292 292 292 292 292 292 292 292 292
294 293 293 292 292 291 291 291 291 291 291 291 291 291 291 291 291 291 292 292 292 292 292 292 292 292 292 293 293 292 291 291 291 291 290 289 289 290 290 289 288 287 287 288 288 288 288 290 292 292 292 292 293 293 294 294 294 294 294 294 294 294 294 293 293 293 293 294 294 294 293 293 293 292 292 292 292 292 292 292 292 292 292 292 292 292 292
293 293 292 292 292 291 290 291 291 291 290 290 291 291 291 291 291 291 291 291 291 292 292 292 292 292 292 293 292 291 291 291 291 290 289 289 290 290 289 288 289 289 289 289 291 292 291 291 292 292 292 293 293 293 293 294 294 294 293 294 294 294 294 294 293 293 294 294 294 293 293 293 293 293 293 292 292 293 292 292 292 292 292 292 292 291 291
293 292 291 292 293 292 290 291 291 291 290 290 291 291 291 291 291 291 291 291 291 292 292 292 292 292 292 292 291 291 290 290 290 290 289 289 289 289 289 289 291 292 291 292 293 293 292 291 292 292 292 293 293 293 293 294 294 294 293 293 294 294 294 294 294 294 294 294 294 293 293 293 293 293 293 293 293 293 293 292 292 291 291 290 289 289 289
292 292 292 293 293 291 289 290 291 291 291 291 291 291 291 291 291 291 292 292 291 292 292 292 291 291 291 291 290 290 289 289 290 290 289 288 289 291 290 290 290 288 288 289 292 292 291 292 292 292 292 293 293 293 293 294 294 294 293 293 293 294 294 294 294 294 294 294 294 293 293 293 293 293 294 293 293 292 292 291 290 289 288 288 287 287 287
292 292 292 292 291 290 289 290 291 291 292 292 291 291 291 291 291 292 292 292 292 292 292 291 291 291 290 290 289 289 289 289 289 289 288 289 290 290 290 290 291 289 287 287 289 291 291 292 292 292 293 293 292 293 293 293 294 294 293 293 293 293 294 294 294 294 294 294 294 293 293 293 294 294 294 293 292 291 290 289 288 287 287 287 287 287 287
292 292 291 291 291 291 291 291 290 290 291 291 291 291 291 291 291 292 292 291 292 292 292 291 291 291 290 289 290 290 289 288 288 289 289 289 289 288 288 290 291 291 289 288 289 290 291 291 291 292 293 292 292 292 293 293 293 293 293 292 293 293 293 294 294 294 294 294 294 294 294 294 294 293 292 291 290 289 288 287 287 287 286 286 286 286 286
292 291 291 291 292 291 291 291 291 291 291 291 291 291 291 291 291 292 292 291 291 291 292 291 291 290 290 290 290 290 289 288 287 288 288 288 287 287 289 290 290 290 290 290 291 291 291 291 291 292 292 292 292 292 293 293 293 293 292 292 292 292 292 293 293 293 294 294 294 294 294 293 292 291 290 289 288 288 288 287 287 286 286 286 286 286 285
292 291 291 292 292 291 291 291 291 291 291 291 292 292 291 291 292 292 292 291 291 291 291 291 290 290 291 291 290 289 289 288 288 288 288 287 286 288 290 291 291 290 291 291 291 291 291 291 291 292 292 292 292 292 292 293 293 293 292 292 291 291 291 291 291 291 291 292 292 291 291 290 289 289 289 288 288 288 288 287 287 286 286 286 285 285 285
Wind_Speed
27 27 26 25 23 22 22 23 24 24 24 22 19 15 11 7 5 5 5 5 2 1 1 0 0 1 1 1 1 1 1 0 1 3 3 3 1 1 1 1 1 1 1 1 3 2 1 2 0 0 1 2 1 5 9 3 2 0 0 0 0 1 1 1 3 3 2 1 0 0 1 1 1 1 1 1 1 0 1 2 0 2 3 2 2 3 2
27 27 27 26 24 22 21 21 22 23 23 23 20 15 11 10 7 4 6 6 4 2 1 1 1 0 2 2 1 1 1 1 2 1 2 2 1 1 1 1 1 1 1 1 2 1 1 1 0 0 1 2 1 4 8 4 2 1 0 1 0 1 1 1 2 3 2 2 2 2 2 1 1 0 1 0 1 4 2 1 1 2 2 2 4 4 2
27 27 27 27 25 23 21 21 21 21 21 21 18 13 10 8 4 3 9 8 0 3 2 1 1 1 1 1 2 2 1 2 3 1 2 3 1 1 1 0 1 2 1 2 2 1 1 0 0 1 1 0 1 3 7 6 3 3 2 1 2 1 0 2 3 5 5 5 4 2 1 1 1 0 1 1 2 3 2 1 2 2 1 2 3 2 1
26 27 27 27 26 24 22 21 20 20 20 18 14 12 8 4 2 3 8 11 10 9 7 4 1 1 1 1 1 1 0 2 4 3 2 3 3 2 2 1 1 2 1 2 1 2 2 1 1 2 1 0 1 4 5 5 5 4 5 4 1 1 0 2 4 6 6 6 4 1 1 3 3 2 3 2 1 2 2 2 3 3 2 3 3 1 1
26 27 27 27 27 25 23 22 21 20 19 16 13 11 7 3 1 2 4 6 9 9 10 9 4 0 1 1 1 2 1 2 3 3 3 4 4 3 2 2 1 1 1 2 1 1 2 1 1 1 0 1 2 4 2 3 7 5 5 5 2 1 1 1 3 5 5 4 3 1 0 5 6 5 5 4 3 3 3 4 3 3 2 5 4 4 4
26 27 27 27 27 26 24 23 22 20 19 18 13 10 9 5 2 3 3 2 2 2 6 8 4 2 2 1 1 2 2 2 2 2 3 4 5 3 1 3 3 1 1 2 2 1 1 1 0 1 0 1 2 2 1 2 7 6 3 4 3 1 2 2 2 4 4 3 4 3 3 5 5 5 7 6 5 6 6 6 5 6 7 7 5 8 8
26 27 28 28 28 27 26 25 23 21 20 18 11 9 10 7 4 5 5 3 1 2 5 4 2 4 3 2 2 2 2 2 1 1 3 3 4 4 0 1 4 2 1 1 2 1 0 0 1 2 1 1 1 1 1 1 4 5 3 3 2 1 2 2 3 4 4 5 5 4 4 5 5 6 8 7 6 8 8 7 5 7 9 5 3 7 9
26 27 27 28 28 28 27 26 24 22 19 15 12 15 12 8 5 5 4 3 4 7 6 2 1 2 3 2 2 2 2 3 2 2 3 2 3 4 1 1 2 2 2 2 3 1 2 1 2 1 2 0 1 1 0 1 1 4 1 1 1 1 2 1 1 3 5 5 6 6 7 8 10 10 7 5 6 7 8 6 3 4 7 4 4 8 7
26 26 26 27 27 27 28 27 26 24 20 15 18 21 15 9 8 7 3 2 5 7 5 2 1 1 2 2 2 2 3 3 2 2 5 4 3 3 2 1 1 2 4 5 3 2 3 4 4 2 2 1 1 1 0 1 1 2 1 0 1 1 1 1 0 5 5 5 8 10 7 8 11 10 6 7 9 7 5 5 5 6 8 7 7 8 6
26 27 27 27 27 26 26 27 27 26 22 19 22 21 17 13 10 7 2 1 4 5 2 1 1 1 2 3 2 2 3 3 1 1 3 7 7 5 2 1 1 2 3 4 5 9 8 8 8 6 5 6 5 5 3 2 3 1 0 0 0 1 2 1 1 4 4 4 5 5 5 7 9 5 5 10 12 8 7 6 5 8 9 7 6 5 3
26 26 27 27 27 26 25 26 26 26 24 23 22 20 19 16 12 8 3 1 3 4 1 2 2 1 3 4 2 2 4 5 4 1 2 4 8 9 7 4 2 2 2 4 9 12 10 8 8 6 7 9 9 8 6 5 6 4 2 1 0 1 2 2 2 3 3 1 2 2 4 7 4 1 1 6 9 10 10 7 3 4 5 4 4 2 3
25 25 26 26 26 26 25 25 24 24 24 22 20 18 18 17 14 11 5 1 2 4 2 2 2 2 4 5 3 2 4 6 4 2 1 2 6 11 12 8 3 1 4 9 11 9 6 5 4 3 5 7 7 6 5 5 5 6 6 5 2 3 3 2 1 2 2 1 1 3 6 4 1 2 2 4 5 7 8 3 3 4 4 5 4 2 2
26 25 24 25 25 25 25 25 23 22 21 19 18 18 17 15 13 11 6 1 1 2 2 1 3 3 5 6 4 2 4 6 4 3 3 3 6 9 10 7 4 5 8 11 9 5 2 2 1 1 3 3 3 3 4 4 3 3 5 7 5 3 3 2 1 2 1 0 3 4 3 4 3 2 2 2 2 2 2 1 4 6 5 4 3 2 2
26 26 24 24 24 24 24 24 24 21 19 18 17 16 14 13 14 13 8 3 0 1 1 1 3 5 5 6 6 3 4 7 5 4 4 4 4 6 7 7 7 8 8 8 6 2 0 0 1 1 2 1 2 2 1 1 0 1 1 4 5 4 3 2 2 3 2 2 4 3 4 6 4 1 3 2 1 2 2 0 3 5 5 4 4 4 4
26 26 25 24 23 23 23 24 24 21 19 17 16 14 14 14 14 12 9 5 1 1 3 2 2 4 3 5 6 4 2 4 4 3 3 3 4 5 7 8 7 6 5 5 2 1 1 1 1 1 1 1 1 2 1 1 1 2 2 1 3 2 0 2 3 2 1 2 4 3 4 4 1 1 2 3 2 2 2 1 1 4 5 5 5 6 6
26 25 25 23 23 23 22 22 23 22 19 17 16 15 15 15 13 10 8 6 1 1 3 4 4 3 2 3 5 4 2 1 2 2 1 2 6 9 8 6 5 5 4 2 1 2 0 2 2 2 2 1 1 0 1 0 1 1 2 4 5 3 2 1 3 2 1 3 4 4 4 2 0 1 3 4 3 3 2 3 2 2 5 6 6 6 7
25 25 24 23 22 22 22 21 22 21 19 18 16 16 16 15 14 11 8 7 3 3 2 4 5 3 2 1 2 3 3 2 1 1 1 2 6 9 10 8 6 8 7 2 1 1 1 2 1 1 1 0 0 1 0 0 0 1 1 2 3 3 2 0 3 3 2 3 4 3 3 1 0 2 5 5 2 3 4 5 2 2 6 7 6 6 7
25 24 24 23 22 21 21 21 21 20 19 18 16 15 15 15 14 11 9 8 4 3 1 2 4 4 3 1 1 2 2 2 1 1 1 1 3 7 10 9 7 9 9 3 1 1 1 1 0 1 1 1 0 1 0 1 1 1 1 2 1 1 1 1 2 2 3 3 4 3 2 1 1 2 5 3 2 3 4 4 3 5 10 10 8 6 6
24 24 24 23 22 21 20 21 21 20 19 18 16 14 14 15 14 11 9 8 5 3 0 2 5 5 3 2 2 2 1 1 1 1 0 1 4 7 6 5 6 7 6 3 2 2 1 1 1 1 1 1 1 1 1 1 0 1 1 2 1 0 1 1 1 1 1 2 3 4 3 1 2 2 4 1 2 2 2 5 9 11 11 11 10 8 6
24 23 23 23 22 21 20 20 21 20 19 18 16 14 13 15 15 12 9 7 5 4 3 6 6 6 4 4 3 2 2 2 2 1 1 0 6 7 1 1 5 6 4 3 2 2 1 1 1 1 1 1 2 2 1 1 1 1 2 3 2 1 1 2 2 1 1 2 3 4 2 1 2 4 4 2 0 2 6 11 15 15 14 14 12 9 9
23 23 22 22 21 21 20 20 20 20 18 17 16 14 12 14 14 12 10 7 4 3 4 5 1 3 4 5 4 2 2 2 1 0 1 2 5 5 1 1 3 3 2 2 2 1 1 1 1 1 1 1 1 2 2 1 2 1 1 3 3 1 1 2 1 1 2 3 2 1 1 1 3 5 6 3 2 7 13 15 15 16 19 17 14 11 12
23 22 21 20 20 19 19 19 19 19 17 16 15 15 14 15 15 12 10 7 4 2 2 1 1 2 5 5 4 4 4 3 1 1 1 3 4 3 1 1 1 1 1 1 2 1 1 0 1 1 1 1 1 1 2 2 2 1 1 1 2 1 1 3 3 2 3 5 5 6 9 10 9 9 9 8 10 16 20 18 14 15 18 15 13 13 13
22 22 21 20 19 18 18 18 18 17 15 14 14 16 16 17 17 15 11 7 6 6 6 6 6 5 4 2 2 3 3 3 1 0 1 2 2 1 0 1 1 1 1 2 2 2 1 0 1 1 1 1 0 1 1 1 2 2 2 2 3 3 3 2 4 3 5 7 6 7 11 14 14 16 16 16 19 20 19 16 14 14 16 16 16 16 16
23 22 21 20 18 16 16 16 17 16 14 12 13 15 16 17 17 17 13 7 6 6 6 7 7 5 2 1 2 1 1 2 3 3 3 3 2 2 2 1 1 0 1 2 2 2 2 2 1 0 1 1 1 1 2 2 1 1 1 3 5 3 3 3 5 4 5 5 4 6 12 17 20 23 24 22 21 18 16 17 18 18 19 21 22 22 22
23 22 20 19 17 15 14 14 15 14 12 10 11 13 15 17 18 19 17 10 6 4 3 2 5 6 4 4 4 2 2 4 6 7 6 6 6 5 4 3 2 3 3 3 3 3 2 1 1 1 2 2 2 1 1 2 1 0 2 5 5 2 3 4 5 5 6 7 9 14 20 21 20 21 20 20 21 20 21 21 21 21 24 26 25 24 26
23 22 21 20 18 15 12 12 13 13 10 8 9 11 14 17 18 19 20 15 7 5 4 2 2 4 5 6 7 5 2 4 6 7 7 8 8 8 9 9 8 8 7 5 5 5 3 1 1 1 1 2 3 2 2 2 1 1 4 6 5 3 4 5 5 6 8 9 11 14 16 15 14 16 19 20 22 25 25 24 22 25 29 29 27 26 27
23 22 21 20 19 16 12 9 10 11 9 6 6 8 12 16 17 17 20 18 9 4 3 3 2 3 6 8 9 8 5 4 4 3 3 4 5 7 8 9 10 11 8 5 4 4 3 1 1 2 2 2 3 2 2 2 2 3 6 6 3 4 6 6 5 7 7 8 11 13 12 11 14 20 25 25 24 24 25 25 26 30 32 30 29 30 29
22 22 22 21 20 17 13 8 7 9 9 6 5 6 8 12 16 16 18 19 14 6 3 4 3 2 5 7 9 9 8 8 8 7 5 3 2 2 2 3 5 6 5 4 3 2 2 1 2 2 2 2 2 2 2 1 2 4 6 4 4 5 7 6 6 8 10 13 18 17 14 15 19 24 29 30 29 27 25 25 28 32 34 32 30 30 29
21 22 22 22 20 17 14 8 4 6 8 6 5 5 5 9 14 16 15 16 17 13 8 5 3 3 3 5 7 8 8 9 9 7 6 6 6 5 4 3 2 1 2 4 3 2 2 3 3 3 2 3 2 1 1 1 2 4 7 8 7 7 8 9 9 11 13 18 20 18 18 21 24 26 30 32 29 25 24 25 27 29 29 27 25 24 25
22 22 22 22 20 17 14 8 3 3 5 5 4 5 4 5 11 15 14 14 15 14 9 4 2 2 3 5 8 9 8 8 10 8 6 7 9 7 5 4 2 0 2 4 4 2 2 3 3 3 4 5 3 1 1 2 2 4 8 10 8 7 11 14 14 14 17 20 21 20 20 23 25 26 26 27 24 21 21 24 25 24 23 21 21 23 24
22 22 22 21 19 17 13 7 2 1 3 4 4 3 2 3 9 14 14 13 13 12 8 4 2 2 3 5 9 12 10 9 11 12 9 9 11 9 6 5 4 1 2 3 3 3 2 2 2 2 3 5 4 1 2 3 3 4 6 7 7 11 16 19 20 20 20 21 21 20 20 21 23 23 21 21 22 21 21 24 25 24 23 23 24 25 25
22 22 22 20 17 14 11 5 1 1 2 4 4 4 3 4 9 12 13 12 12 10 7 3 2 2 3 2 6 12 13 9 11 14 12 11 13 11 7 7 5 2 2 2 2 1 1 2 2 1 1 3 3 1 1 2 3 8 11 11 12 16 20 21 21 20 18 17 17 17 17 17 19 21 22 24 26 24 22 22 23 22 20 20 21 22 23
22 22 22 18 15 13 9 3 0 1 3 4 3 3 4 5 8 11 12 11 9 7 6 4 1 0 3 2 4 11 14 10 10 14 14 13 14 13 9 8 6 2 1 1 1 1 2 2 1 1 0 2 2 1 2 4 7 13 17 15 16 20 23 22 21 18 16 16 16 15 16 18 20 23 25 26 25 24 22 21 20 21 20 20 21 21 21
21 22 20 17 13 12 8 3 1 2 3 3 2 2 3 5 8 11 11 9 7 5 5 5 2 1 3 2 1 8 14 11 9 11 11 11 14 13 9 8 6 2 2 2 2 2 2 1 1 0 1 1 1 1 3 5 10 17 19 19 21 24 23 20 18 16 16 17 18 18 19 21 21 21 21 20 20 20 20 19 19 19 18 18 19 18 17
21 21 19 15 12 11 8 4 2 2 3 3 4 5 6 6 8 10 8 7 5 3 3 4 2 0 2 2 0 6 12 10 7 9 9 9 12 11 8 6 3 2 2 4 2 1 1 1 2 1 0 1 1 2 2 6 15 20 21 21 22 22 19 17 17 16 16 17 19 19 18 17 18 18 18 19 20 19 17 17 17 16 16 16 16 15 13
21 20 17 13 11 10 7 4 3 2 3 5 6 7 7 6 6 6 5 5 4 2 1 2 1 1 1 0 1 6 10 8 7 9 8 7 8 9 6 4 2 2 5 4 1 0 1 2 2 2 1 1 1 3 7 14 19 20 20 19 18 17 17 16 16 17 17 17 17 17 16 17 19 20 20 21 20 19 18 19 18 15 14 13 12 10 9
20 19 15 12 11 8 5 3 3 5 7 7 7 5 4 3 3 3 3 3 3 3 2 1 1 1 2 2 3 6 7 6 7 7 6 5 6 6 4 3 2 4 5 2 1 2 2 2 1 1 1 2 5 9 14 18 17 15 16 15 14 14 15 15 15 16 18 18 17 17 19 21 21 21 21 19 16 15 15 14 11 9 7 5 3 4 4
19 17 14 12 10 7 4 5 7 7 6 6 4 3 3 2 2 2 2 2 2 3 3 2 1 2 3 2 3 5 5 4 5 3 3 5 5 4 3 2 2 3 3 1 1 4 4 1 1 0 2 4 9 13 17 17 14 12 14 14 14 15 15 15 16 16 16 17 18 20 22 23 22 20 16 11 10 11 10 8 7 5 5 5 6 5 5
17 16 14 13 11 9 8 9 9 6 4 3 2 2 2 3 2 2 3 3 2 1 2 2 2 3 3 3 4 5 4 3 2 1 2 4 3 2 2 2 2 2 2 0 1 4 3 0 1 1 2 4 8 15 19 16 11 11 14 15 15 15 16 16 16 15 14 15 17 17 17 17 15 12 9 9 12 15 15 15 14 13 13 13 13 13 13
19 19 18 17 15 11 8 8 7 3 1 1 1 1 1 2 2 1 2 3 1 1 1 2 3 4 4 5 4 4 4 4 3 2 1 2 2 1 1 1 1 2 1 1 2 3 2 1 1 2 3 5 10 16 19 15 10 11 15 16 16 17 17 17 16 14 14 15 14 12 10 8 5 6 9 12 15 18 19 20 20 20 21 21 22 22 22
22 22 20 18 16 11 5 3 2 1 1 0 1 1 1 1 1 0 0 1 0 1 2 2 2 3 3 4 4 4 4 4 4 3 2 2 2 2 1 1 2 1 1 2 2 2 1 0 1 1 3 9 14 17 17 14 11 12 14 15 16 17 17 17 15 14 15 14 9 6 5 5 8 11 14 17 20 22 23 24 25 25 26 26 26 26 26
21 21 19 17 13 8 4 1 1 1 1 1 1 1 1 0 0 1 1 1 1 2 2 3 3 3 5 5 5 5 4 3 2 2 1 1 1 1 0 1 1 0 1 2 2 1 1 1 1 1 5 12 17 18 15 14 13 13 13 15 15 16 16 16 14 14 14 10 6 7 8 10 14 17 20 22 24 25 26 26 27 27 26 26 27 27 27
19 18 16 13 8 5 3 1 1 1 1 1 1 1 2 1 1 0 1 1 2 2 2 2 5 6 5 5 5 5 4 3 3 2 1 1 1 1 1 1 1 0 1 2 1 1 0 0 1 3 9 16 18 18 16 14 13 14 14 14 14 14 14 13 12 11 9 6 8 11 12 14 17 19 21 23 24 25 26 26 26 25 25 25 26 27 27
17 15 11 8 4 2 2 1 1 1 0 0 1 1 0 0 0 0 0 1 2 3 4 6 9 7 4 3 4 4 3 2 2 2 1 1 0 1 1 0 1 2 2 2 1 0 1 2 3 6 12 17 18 18 17 13 11 13 15 14 12 12 12 11 10 8 6 9 12 13 14 16 17 19 20 22 22 23 23 23 23 22 22 23 24 24 24
15 12 9 5 2 2 1 1 0 0 1 1 1 1 1 1 1 1 2 3 5 7 9 12 11 7 5 3 4 3 2 1 1 2 1 0 0 0 1 1 1 1 1 1 1 1 1 1 3 7 13 17 18 18 17 13 9 11 13 12 11 12 11 10 9 8 9 12 13 13 14 16 17 18 19 20 20 20 20 20 19 19 19 19 20 20 20
11 9 6 2 1 2 1 0 0 0 1 2 2 2 2 1 2 4 6 8 9 10 12 13 11 7 6 4 3 2 2 1 1 1 1 1 0 1 1 0 1 1 1 1 1 2 2 2 4 8 14 16 17 17 17 12 8 9 11 11 11 11 10 8 8 9 11 12 13 13 15 16 16 16 17 17 17 17 17 17 16 16 16 17 18 18 18
7 5 4 1 1 2 1 1 2 1 1 2 3 3 3 5 7 8 10 10 10 10 11 11 9 7 6 4 3 2 2 1 1 1 1 1 1 0 1 1 1 0 1 1 2 3 3 3 6 10 14 15 16 17 16 11 7 8 10 10 9 9 7 6 6 8 10 12 12 12 13 14 14 14 14 15 15 15 15 15 15 15 16 16 17 17 17
4 3 2 0 1 1 1 1 2 3 4 4 5 5 7 9 10 10 11 9 7 8 9 8 6 4 3 3 2 1 0 1 1 2 1 1 0 1 1 1 1 1 2 3 3 2 2 4 7 11 14 15 15 16 15 11 6 7 9 8 7 6 6 5 5 7 10 11 12 12 12 12 11 11 11 12 13 14 14 14 14 15 15 16 16 16 17
4 3 2 2 2 4 5 4 4 6 8 8 7 7 8 10 11 11 9 4 3 6 8 6 4 3 1 1 1 0 1 1 1 0 0 0 0 0 1 0 2 2 2 3 3 4 5 7 10 11 13 14 14 14 13 10 6 5 7 6 5 4 5 4 5 7 9 10 11 11 10 9 9 10 11 12 13 13 13 13 14 15 15 15 15 16 16
5 4 5 4 4 4 5 4 3 3 5 7 9 10 10 11 12 11 6 3 5 9 8 4 4 2 1 1 1 1 1 2 1 1 0 1 1 2 1 2 3 2 2 4 6 8 9 11 12 12 12 13 13 12 12 9 6 4 4 4 3 2 3 4 5 7 8 8 9 9 9 8 9 10 10 11 12 12 13 13 14 15 15 15 15 16 16
4 4 5 7 7 6 5 5 5 5 6 10 14 14 12 12 13 11 7 7 8 8 4 2 3 1 1 0 1 0 1 2 2 1 1 2 2 2 1 3 4 4 7 10 13 13 13 14 14 13 12 12 12 11 11 9 6 4 2 1 1 1 2 3 5 7 8 8 8 8 8 9 10 10 10 11 11 11 12 13 14 14 14 15 15 15 16
5 5 5 8 12 14 13 12 13 13 14 16 17 16 14 14 14 13 10 9 8 5 3 3 2 1 1 2 1 1 1 1 1 0 1 2 3 3 4 6 7 11 15 17 17 16 15 15 14 13 11 11 11 11 10 9 7 5 6 5 4 3 4 5 6 8 9 10 10 9 9 9 9 9 9 8 8 8 10 12 13 13 13 13 13 14 14
Wind_Direction
1 0 0 358 357 357 356 353 351 347 346 348 350 353 358 347 321 313 301 290 278 193 187 9 73 181 333 331 226 265 301 107 30 7 10 23 36 42 72 129 162 184 186 154 172 189 189 178 164 164 124 106 173 333 348 336 212 357 98 168 100 162 194 270 265 288 312 319 332 204 185 162 163 39 60 165 188 96 254 270 155 191 187 145 199 238 178
2 3 2 1 0 359 357 356 354 353 353 352 353 354 351 336 318 329 346 316 254 201 206 215 181 297 338 14 32 359 13 46 31 15 5 8 28 72 61 103 103 100 70 102 141 184 203 175 89 98 135 137 200 347 9 36 119 46 351 206 182 232 237 241 272 291 285 239 204 199 194 183 232 333 70 156 95 95 103 101 125 230 215 173 234 240 169
4 4 3 4 3 1 360 357 354 356 356 354 354 355 349 336 315 355 12 5 154 139 103 149 149 83 36 46 25 360 22 47 38 46 34 22 53 115 71 65 83 72 78 90 84 58 36 315 128 137 125 202 240 353 20 43 67 48 40 138 208 244 216 203 251 262 251 246 248 253 256 239 277 241 192 174 121 140 176 148 174 225 201 169 225 246 86
7 5 5 4 4 5 4 358 356 357 357 357 0 3 1 2 360 352 10 32 62 75 60 48 71 110 93 83 37 11 11 27 28 53 62 32 40 67 45 30 66 65 80 112 92 51 46 36 120 138 145 209 287 332 12 43 33 27 42 53 144 174 220 220 239 252 254 262 265 311 2 273 264 260 228 187 144 185 166 163 214 208 182 198 206 230 248
9 8 8 6 5 7 7 4 1 357 358 5 11 14 23 53 53 348 353 28 46 55 45 32 23 61 75 83 20 7 327 322 12 55 59 32 38 59 47 29 38 168 126 132 150 60 44 38 105 129 164 231 296 321 344 44 21 23 33 24 64 146 277 209 213 248 254 269 268 181 204 260 260 265 250 216 191 190 176 208 210 131 200 243 191 183 225
11 11 10 9 9 8 9 10 6 359 4 11 12 27 43 53 62 48 37 21 19 30 18 11 15 40 41 76 48 16 8 353 15 33 20 24 32 34 56 41 35 55 159 148 150 125 89 39 7 167 40 303 309 358 57 40 25 40 35 12 51 185 263 192 195 250 232 226 249 221 218 249 246 246 248 234 214 201 202 220 186 159 226 251 175 183 213
13 13 11 11 11 10 12 14 11 11 13 6 8 45 52 47 58 45 40 66 82 346 339 336 38 44 20 35 53 34 34 31 16 339 349 15 20 14 123 49 24 34 38 106 122 106 198 68 324 206 157 11 307 9 69 89 33 39 31 16 66 219 262 173 194 258 250 242 246 208 212 249 249 238 237 234 231 223 224 234 200 197 239 263 160 206 224
14 14 13 12 12 12 15 16 16 20 17 7 30 57 53 43 38 13 15 59 22 358 358 4 75 32 7 33 47 53 58 27 13 23 14 350 350 8 53 44 26 62 51 67 105 51 329 342 6 180 174 54 218 240 232 175 17 20 37 55 82 230 266 109 159 263 265 264 266 241 227 247 258 255 246 233 234 234 238 242 210 222 257 256 204 229 242
15 15 14 14 13 13 15 17 19 22 19 24 47 54 50 42 31 9 3 37 360 355 10 28 39 30 20 19 16 39 43 7 346 50 43 44 30 354 319 325 23 74 57 64 79 357 301 287 307 277 225 286 261 244 278 177 299 354 57 147 75 196 244 80 191 268 260 244 257 261 260 266 262 255 247 239 231 219 223 224 196 209 236 232 220 234 247
17 17 16 15 15 16 16 18 22 22 24 35 44 45 42 37 31 19 15 31 6 4 11 8 25 86 22 360 360 37 30 3 341 133 70 54 45 23 336 247 62 70 71 53 341 320 306 290 298 295 277 289 290 274 262 231 253 293 89 273 115 181 242 210 209 269 268 233 253 281 305 289 266 234 225 243 239 230 228 225 210 213 223 231 233 244 285
16 17 18 16 15 17 17 19 22 22 27 33 34 33 34 32 28 24 21 62 18 7 360 24 31 43 9 357 357 33 31 22 19 58 90 48 37 38 46 63 90 101 58 344 321 316 310 297 296 292 275 275 278 273 261 239 238 231 201 211 155 180 235 241 215 250 266 273 352 328 268 262 261 104 247 255 251 252 252 251 259 240 239 265 276 295 352
15 16 18 17 16 16 17 20 21 22 27 32 30 31 32 29 27 25 24 72 24 9 31 58 25 358 358 359 357 15 21 15 8 16 72 49 33 36 40 45 68 96 343 330 325 322 315 297 292 277 260 265 269 256 235 230 231 215 207 215 206 180 205 220 196 223 263 357 16 252 245 250 309 28 313 269 266 269 263 273 20 8 319 304 300 317 360
14 14 16 17 17 17 17 19 20 20 24 28 29 32 31 28 30 30 30 64 44 10 26 17 2 10 13 10 10 4 9 16 36 78 76 50 35 33 34 32 3 323 327 330 332 337 335 307 315 276 255 283 289 236 219 235 234 195 200 214 207 182 181 184 178 193 211 147 193 214 274 316 300 308 337 308 299 311 267 181 52 24 351 327 326 348 13
14 14 14 15 17 17 17 18 20 19 20 23 26 28 28 30 35 34 34 50 89 8 10 340 4 15 13 10 5 352 5 20 42 70 60 45 37 21 9 358 335 317 322 327 329 348 70 274 340 286 272 315 306 257 243 271 357 77 206 212 199 182 163 177 214 203 184 220 226 239 310 306 277 315 11 325 317 5 325 205 63 27 1 357 7 11 12
14 14 14 14 16 16 16 18 18 19 21 21 22 23 25 31 35 32 33 47 99 40 35 35 358 347 348 10 16 12 11 15 14 16 30 48 36 9 357 350 335 320 318 312 302 106 139 234 210 218 246 233 231 263 328 89 79 28 13 101 151 165 158 199 224 219 170 238 259 264 280 281 260 62 340 305 264 264 284 243 114 48 16 2 5 10 7
14 13 13 13 14 14 15 16 16 19 21 19 18 21 24 28 32 32 33 35 53 96 49 32 7 347 350 30 38 39 29 355 350 344 357 29 9 2 6 7 353 347 346 318 141 88 163 215 185 197 226 201 169 21 355 213 138 115 83 88 108 108 40 125 220 240 186 219 253 251 237 248 11 299 317 323 278 221 219 239 210 59 9 353 357 1 1
13 13 13 13 13 13 13 14 14 16 18 17 17 18 19 21 26 33 37 33 49 129 96 37 27 23 24 44 53 46 20 354 360 351 336 353 349 349 359 13 21 18 14 20 141 55 119 169 170 211 206 154 217 259 355 358 297 189 162 78 104 110 60 105 229 247 213 219 252 253 239 271 315 280 313 330 291 209 230 249 246 358 335 330 338 339 345
12 12 12 13 13 12 12 12 12 13 15 18 17 12 14 19 23 29 33 33 57 128 162 56 63 58 48 39 24 21 9 360 11 315 306 338 339 336 347 3 16 14 12 24 111 44 72 107 14 236 189 62 336 276 321 57 326 318 346 351 9 65 9 271 240 254 227 226 253 261 265 260 184 287 326 353 134 195 240 261 313 321 311 315 315 302 315
10 11 11 12 12 12 12 12 12 11 12 16 17 11 9 12 16 21 25 28 49 63 289 146 97 61 52 82 65 54 58 50 34 346 273 65 352 333 331 5 17 7 8 35 70 41 53 58 23 7 328 31 55 359 342 5 332 359 352 325 313 358 333 271 221 262 245 215 256 281 289 128 125 342 344 23 169 231 278 310 312 301 299 308 303 288 297
8 10 10 10 10 11 13 14 15 13 10 14 20 16 8 6 10 14 16 18 32 45 88 131 103 50 62 109 89 84 110 82 56 42 143 7 348 343 327 69 14 2 11 41 47 46 62 40 6 11 350 21 37 10 337 315 304 313 312 306 301 310 301 266 208 244 273 224 234 266 282 78 49 355 353 33 79 320 329 321 310 303 301 296 285 284 300
7 9 10 9 10 11 12 15 17 15 13 18 26 27 21 16 18 20 20 22 26 50 107 143 123 20 91 107 84 88 102 70 74 107 235 300 344 2 110 169 345 357 32 55 59 61 64 62 19 356 339 351 354 343 347 337 318 328 325 305 300 271 271 287 270 247 249 230 213 233 318 18 4 330 317 299 278 317 324 317 302 300 301 288 272 285 306
6 9 10 10 10 11 13 17 17 16 19 28 39 43 39 32 28 25 23 26 31 48 106 144 283 116 116 95 70 83 75 54 87 141 294 315 347 26 125 227 294 36 79 83 87 74 75 120 38 356 322 321 318 332 349 323 304 338 22 290 289 304 322 295 277 261 269 272 275 290 297 303 314 316 303 284 281 301 314 314 301 301 304 292 278 292 305
4 7 9 9 10 10 13 18 19 18 25 40 49 49 42 34 28 24 24 38 64 86 93 90 98 119 118 54 58 97 65 34 37 274 311 314 336 8 344 264 233 135 143 165 132 87 110 140 34 351 292 324 336 306 319 286 268 309 323 277 279 310 332 286 258 283 303 285 271 282 293 300 311 312 306 299 299 304 315 321 319 319 319 313 305 306 308
1 4 6 7 8 8 11 16 20 21 30 46 51 44 37 32 29 27 29 47 76 90 99 91 77 71 65 69 108 121 14 313 273 261 254 253 270 309 351 26 68 35 238 208 190 144 132 125 87 315 262 217 160 284 297 275 245 279 304 279 276 313 2 312 272 288 302 286 293 313 305 304 308 309 307 309 312 314 318 319 317 318 319 316 312 308 305
360 2 4 4 4 5 8 14 19 23 31 44 48 42 34 32 31 29 30 36 54 72 92 84 45 46 74 104 87 46 324 281 268 262 258 257 259 274 299 315 301 295 294 265 224 193 168 142 144 226 238 191 187 264 273 254 267 227 251 273 279 319 13 321 281 274 276 277 289 295 294 295 299 301 303 307 310 313 312 309 306 306 309 310 308 303 300
360 359 1 2 1 1 4 10 15 19 25 34 40 41 37 34 32 30 29 28 38 58 52 20 32 62 83 85 66 49 6 297 287 281 275 267 260 263 272 276 278 282 288 284 249 219 200 139 152 224 248 190 191 230 241 242 264 230 250 272 279 281 295 293 285 287 286 282 287 291 293 295 295 295 298 301 303 307 308 303 298 298 301 304 303 299 295
360 358 358 360 0 358 356 1 9 13 15 19 27 35 37 34 32 30 28 28 35 52 22 345 355 74 80 72 60 54 52 32 6 344 308 278 263 265 268 272 279 283 282 278 249 212 187 128 178 227 238 184 189 233 261 260 261 254 262 269 256 263 285 291 290 292 287 287 298 304 303 297 294 296 299 300 300 301 298 294 292 292 294 297 297 295 292
358 356 355 356 358 355 350 348 359 6 7 8 13 21 30 31 29 25 24 26 28 24 343 323 329 49 74 69 60 56 59 55 48 46 46 48 38 337 310 294 291 286 266 239 219 188 175 199 224 217 191 177 199 235 244 245 265 264 263 250 224 252 284 297 295 294 294 294 298 300 295 289 289 292 295 297 299 298 292 285 285 287 290 292 293 291 287
356 354 352 352 353 350 344 336 339 355 359 360 360 1 16 28 25 20 17 17 17 13 5 360 14 44 49 47 51 58 64 59 49 46 50 48 40 25 14 14 6 328 236 217 209 192 199 217 231 237 213 190 205 254 244 220 235 259 268 270 261 264 288 301 298 293 292 293 294 294 290 287 287 289 292 298 303 301 294 290 287 286 288 288 284 281 281
354 352 351 349 349 346 339 328 307 338 357 360 357 354 5 25 20 15 12 10 8 7 6 2 18 49 34 31 37 41 46 46 38 34 35 29 22 17 8 3 4 315 230 220 215 228 235 221 229 245 227 201 188 216 262 242 248 269 275 277 280 291 308 311 306 296 291 293 295 294 287 285 288 290 293 300 304 301 297 299 297 290 285 282 279 279 282
353 351 350 349 349 348 343 331 290 300 350 358 3 12 28 12 6 7 8 6 4 3 2 349 335 11 25 33 31 26 25 30 29 27 28 23 18 19 19 10 4 308 253 244 231 235 240 225 237 257 230 207 196 209 266 253 264 281 275 274 294 314 317 315 311 304 298 297 299 296 289 288 294 294 293 297 300 296 295 300 301 292 283 281 282 284 286
353 351 351 353 355 355 355 353 282 259 327 344 9 41 47 6 359 3 5 4 2 2 3 6 8 358 346 357 19 18 18 23 20 17 20 18 12 12 11 6 1 330 277 263 234 228 255 239 244 285 251 205 189 203 258 230 246 275 279 285 307 321 321 316 311 306 303 302 302 296 289 291 296 297 296 299 300 297 295 300 305 303 296 291 291 292 292
354 351 353 357 1 3 7 18 230 286 323 334 360 36 31 6 358 359 360 2 4 7 16 33 77 293 328 335 12 13 13 12 6 6 11 10 5 3 4 3 6 13 11 333 257 278 300 262 247 345 272 179 149 140 252 231 253 277 286 296 313 320 318 313 310 309 309 311 308 298 293 298 302 302 302 302 302 300 297 297 301 304 301 297 296 297 296
354 354 355 358 2 7 15 22 315 305 327 329 322 336 347 344 342 347 353 360 3 11 27 36 77 216 324 336 24 12 7 3 355 357 0 358 357 359 358 354 2 47 59 2 307 286 296 284 289 359 148 135 99 251 242 258 287 299 304 308 313 316 314 312 313 314 313 313 310 302 299 303 308 309 308 307 307 305 302 300 300 300 297 294 295 298 300
355 356 355 356 1 8 16 20 3 332 324 319 307 309 315 317 322 332 344 354 358 20 43 37 50 115 345 355 49 2 0 358 349 346 342 342 351 358 355 348 2 56 5 332 309 293 335 324 317 317 40 75 260 230 258 313 317 317 316 312 312 315 313 309 312 314 312 313 314 311 311 314 316 315 312 312 313 312 308 307 307 302 296 295 298 301 305
354 355 355 355 356 358 1 10 15 353 332 326 318 313 310 305 311 328 346 358 5 34 73 51 81 138 6 290 278 335 349 355 347 342 339 337 343 350 354 358 4 344 335 326 287 116 351 315 315 321 341 348 290 297 329 328 321 318 318 315 316 320 317 314 317 318 317 318 319 318 320 322 320 319 319 319 320 316 309 306 307 303 299 302 306 309 310
353 354 356 354 352 350 350 342 332 329 330 332 332 332 326 314 327 348 2 12 19 25 32 80 146 188 216 224 282 322 339 345 339 340 350 350 338 335 348 11 353 332 333 334 94 6 332 307 324 304 235 323 333 332 335 333 329 328 330 329 334 340 337 333 332 327 324 326 328 329 332 330 326 327 329 329 329 326 318 315 316 312 311 323 341 345 340
350 354 356 356 355 354 338 319 321 328 333 336 345 10 26 20 14 16 14 15 23 17 2 345 275 224 207 221 292 319 331 336 337 346 1 351 339 336 357 13 358 340 334 282 315 334 330 359 63 250 255 311 334 336 337 338 339 345 348 348 352 356 353 347 343 338 334 333 333 334 334 329 325 329 338 349 6 18 25 38 54 64 72 79 76 63 57
347 352 357 359 359 352 329 316 320 329 334 330 334 6 23 17 18 11 358 360 9 2 335 310 269 230 208 232 293 318 322 320 329 6 358 342 345 6 7 360 360 355 348 249 345 345 339 29 61 329 289 315 333 339 343 344 342 345 351 353 352 352 352 349 345 342 337 331 329 329 328 321 321 337 10 41 53 57 64 72 78 82 86 87 85 82 80
348 353 354 351 349 344 326 313 319 327 323 329 337 348 21 31 40 26 356 360 356 242 260 277 274 270 257 249 268 312 328 317 310 315 323 318 315 321 332 348 8 2 332 262 329 348 349 315 338 348 341 334 335 340 346 348 346 347 350 350 349 351 351 350 346 343 341 338 338 338 338 336 356 42 60 68 71 73 77 81 84 86 87 86 85 83 79
348 348 344 339 339 342 338 329 345 84 155 135 3 6 22 36 32 8 22 33 333 263 262 262 267 280 272 248 245 274 304 310 305 297 293 294 295 301 310 344 351 349 253 259 314 358 64 34 322 310 320 329 335 340 343 343 343 347 348 346 348 351 351 350 351 350 349 353 7 28 32 48 75 81 79 80 80 80 81 83 83 82 81 79 78 75 73
341 337 332 330 334 345 360 31 98 117 111 43 41 11 337 336 321 287 229 218 279 300 282 253 258 289 301 293 279 279 293 304 297 284 282 297 299 298 337 12 360 351 223 287 328 16 95 307 288 274 319 331 338 344 345 339 337 343 346 347 351 354 354 354 358 358 356 6 57 92 84 79 84 86 86 86 84 83 82 80 78 77 76 75 73 70 67
336 333 331 331 336 352 6 20 112 107 38 56 75 3 332 343 5 326 249 257 291 305 294 294 306 310 310 309 304 293 285 283 278 272 270 279 304 359 44 44 11 328 304 326 360 60 135 263 236 309 330 337 342 347 348 342 338 344 349 350 352 356 358 3 7 7 11 51 104 105 93 89 91 91 90 90 88 85 83 80 78 77 76 74 71 69 65
336 336 333 327 329 355 2 351 82 89 15 73 108 132 241 304 307 262 315 339 316 298 304 318 317 306 292 310 319 300 272 261 275 273 262 266 341 44 60 272 280 304 323 346 17 297 286 256 244 286 319 335 343 347 349 347 344 346 348 350 354 0 7 17 27 36 67 104 108 100 94 95 96 94 92 89 86 84 83 80 78 77 75 72 71 69 66
342 346 344 335 336 5 360 297 358 61 208 216 149 151 178 196 203 224 278 307 302 300 314 324 321 298 272 291 311 289 250 258 285 261 236 57 38 240 226 239 353 12 8 3 344 285 284 263 269 300 323 336 343 346 348 350 349 348 348 352 2 11 16 28 48 76 108 115 106 100 101 102 99 95 91 86 83 81 80 78 76 73 71 69 68 66 64
344 352 2 9 335 349 22 147 358 14 189 196 180 166 177 232 259 268 288 297 295 300 315 323 319 297 280 289 297 268 253 268 265 223 141 111 222 236 218 192 21 41 50 3 299 268 244 260 302 322 334 339 342 344 346 348 352 355 355 359 10 16 20 39 69 100 121 120 110 108 110 106 100 95 90 86 83 79 76 74 72 68 65 65 64 64 63
342 351 14 38 279 309 323 204 234 253 226 217 216 220 258 286 286 288 295 296 294 304 317 318 305 285 271 261 256 262 268 247 221 213 181 177 229 336 38 21 287 183 140 217 251 247 239 273 311 331 340 342 342 344 346 348 356 1 360 2 8 13 22 53 90 118 132 128 120 116 113 107 100 97 91 86 83 79 73 71 68 63 60 60 60 61 62
333 326 335 323 214 232 234 241 272 279 276 271 266 272 285 290 291 300 307 299 289 307 324 319 296 274 253 234 236 259 58 109 199 233 204 129 25 348 7 354 301 241 198 212 230 228 246 299 325 337 341 342 343 344 344 344 349 357 360 3 5 7 22 63 106 137 146 139 129 122 118 110 103 98 91 85 82 78 73 68 63 58 56 57 59 59 60
316 278 249 239 246 251 257 274 294 293 286 284 286 292 297 295 297 308 318 308 289 321 330 313 272 251 239 206 217 256 210 177 181 210 116 79 286 221 135 274 275 253 221 210 220 235 267 307 327 334 335 337 342 345 344 339 334 344 357 3 6 8 25 66 115 145 154 148 138 131 126 118 109 101 94 88 83 79 72 64 60 57 56 56 56 57 58
285 248 228 231 250 265 271 279 287 286 286 291 295 299 302 301 302 312 325 318 311 325 328 293 239 227 195 119 68 339 247 208 170 138 221 223 175 150 171 236 244 226 206 224 244 260 284 312 325 327 325 330 337 341 341 335 322 314 340 356 2 15 44 82 115 135 145 145 139 132 126 118 111 104 99 92 86 79 72 64 57 52 51 49 48 48 49
257 244 234 233 240 251 264 276 281 278 280 288 294 299 299 296 298 307 315 311 312 321 322 243 209 161 97 181 240 241 185 166 142 128 264 232 169 146 194 226 220 227 248 263 274 285 298 311 318 319 318 321 326 332 336 331 311 266 245 282 307 138 120 112 117 122 126 126 124 121 119 115 111 105 98 91 82 73 65 59 51 45 42 41 39 38 38
226 245 260 265 266 267 266 267 271 274 276 281 290 296 295 292 296 303 305 299 295 288 254 222 196 129 155 205 191 147 140 143 126 182 251 230 190 184 214 236 248 261 270 279 289 297 301 304 310 313 311 311 315 320 325 324 306 254 220 217 215 182 156 140 125 119 117 115 115 117 118 113 107 99 90 81 71 60 56 54 49 41 37 38 38 37 35